Location: Newark
(34.9500°N, 139.9667°E)
Time: 17:53:30
(UTC+00:00)

Vanguard 2 Rocket - Pass Details

Date: 12 December 2019
Orbit: 554 x 3326 km, 32.9° (Epoch: 23 January)

Event Time Altitude Azimuth Distance (km) Brightness Sun altitude
Rises 07:32:43 0° 238° (WSW) 7,163 14.7 -1.5°
Reaches altitude 10° 07:37:58 10° 236° (SW) 5,929 13.0 -2.5°
Maximum altitude 07:54:45 61° 162° (SSE) 2,399 9.1 -5.6°
Drops below altitude 10° 08:04:33 10° 85° (E) 3,640 9.4 -7.4°
Enters shadow 08:05:18 - 84° (E) 3,846 9.5 -7.5°
Sets 08:06:59 0° 81° (E) 4,332 - -7.9°
